Regional Weather Roundup
Issued by NWS Little Rock, AR

Home | Current Version | Previous Version | Graphics & Text | Print | Product List | Glossary On
Versions: 1 2 3 4 5 6 7 8 9 10 11 12 13 14 15 16 17 18 19 20 21 22 23 24 25 26 27 28 29 30 31 32 33 34 35 36 37 38 39 40 41 42 43 44 45 46 47 48 49
000
ASUS44 KLZK 211105
RWRLZK

WEATHER ROUNDUP FOR ARKANSAS
NATIONAL WEATHER SERVICE LITTLE ROCK AR
500 AM CST SUN DEC 21 2014

NOTE: "FAIR" INDICATES FEW OR NO CLOUDS BELOW 12,000 FEET WITH NO
SIGNIFICANT WEATHER AND/OR OBSTRUCTIONS TO VISIBILITY.

ARZ001-003-010-029-211200-
NORTHWEST ARKANSAS

CITY           SKY/WX    TMP DP  RH WIND       PRES   REMARKS
FAYETTEVILLE   CLOUDY    41  39  93 S5        30.12F
FORT SMITH     CLOUDY    45  40  82 E3        30.14F
HARRISON       CLOUDY    39  38  96 SE7       30.14F FOG
BENTONVILLE    CLOUDY    43  37  81 S6        30.13S
ROGERS         CLOUDY    41  39  93 SE5       30.13S
SILOAM SPGS    CLOUDY    43  36  75 S8        30.13S
HIGHFILL       CLOUDY    42  40  92 S7        30.11F
$$

ARZ004-005-016-211200-
NORTH CENTRAL ARKANSAS

CITY           SKY/WX    TMP DP  RH WIND       PRES   REMARKS
BATESVILLE     CLOUDY    37  34  87 SE3       30.21S
FLIPPIN        CLOUDY    39  34  81 E3        30.17S
MTN HOME       CLOUDY    38  36  92 SE5       30.17S
$$

ARZ040-041-211200-
WEST CENTRAL ARKANSAS

CITY           SKY/WX    TMP DP  RH WIND       PRES   REMARKS
MENA           CLOUDY    45  41  87 NE3       30.14F
MOUNT IDA      CLOUDY    37  35  92 CALM      30.14F FOG
$$

ARZ009-017-025-026-028-211200-
NORTHEAST ARKANSAS

CITY           SKY/WX    TMP DP  RH WIND       PRES   REMARKS
CORNING        CLOUDY    39  34  81 E8        30.23S
JONESBORO      CLEAR     32  31  96 NE6       30.22S WCI  26
NEWPORT        CLOUDY    39  36  89 E6        30.23F
WALNUT RIDGE   CLOUDY    39  34  81 SE9       30.21F
BLYTHEVILLE    CLEAR     30  28  92 NE3       30.23S
$$

ARZ022-023-033-042-044-211200-
CENTRAL ARKANSAS

CITY           SKY/WX    TMP DP  RH WIND       PRES   REMARKS
LITTLE ROCK    PTCLDY    34  30  85 CALM      30.20S FOG
N LITTLE ROCK    N/A     36  35  98 NE7       30.20S
SEARCY         CLEAR     31  30  96 N3        30.22S
HOT SPRINGS    MOCLDY    35  34  96 CALM      30.18F FOG
RUSSELLVILLE   CLOUDY    41  36  82 VRB3      30.18F
CLINTON        CLOUDY    39  37  93 CALM      30.22S FOG
$$

ARZ036-211200-
EAST ARKANSAS

CITY           SKY/WX    TMP DP  RH WIND       PRES   REMARKS
WEST MEMPHIS   CLEAR     32  30  92 NE5       30.20S WCI  27
$$

ARZ050-053-066-070-073-211200-
SOUTHWEST ARKANSAS

CITY           SKY/WX    TMP DP  RH WIND       PRES   REMARKS
ARKADELPHIA    FAIR      32  32 100 CALM      30.20S FOG
CAMDEN         CLEAR     28  28 100 CALM      30.18F FOG
TEXARKANA      PTCLDY    35  35 100 NE5       30.17F FOG     WCI  31
EL DORADO      CLEAR     33  31  92 NE3       30.17S FOG
DE QUEEN       CLOUDY    43  39  86 E6        30.16S
$$

ARZ056-057-069-211200-
SOUTHEAST ARKANSAS

CITY           SKY/WX    TMP DP  RH WIND       PRES   REMARKS
PINE BLUFF     CLEAR     33  31  92 NW5       30.19S FOG     WCI  29
STUTTGART        N/A     34  30  86 N6        30.19F WCI  29
MONTICELLO     CLEAR     33  30  88 CALM      30.17F FOG

$$




USA.gov is the U.S. government's official web portal to all federal, state and local government web resources and services.